Meteopurmerend
purmerend
Purmerend - Baaienwijk



My webcam  My webcam


waarschuwing voor Onweer Meer informatie blitzortung!


Regen radar Meer informatie rain snow radar


Bezoek onze andere website:

CandyAppleRed WebdesignWebdesign Purmerend Candy Apple Red

MeteopurmerendBlog

Template documentation
and downloads



Onweer van: 26-07-2021 15:00 tot: 21:00 waarschuwing voor: Onweer niveau: Geel info button
Enkele onweersbuien, lokaal met hagel en veel neerslag in korte tijd.Kans op blikseminslag, hagel en veel neerslag in korte tijd.Verkeer en buitenactiviteiten kunnen hinder ondervinden.Mijd open water en open gebied, schuil niet onder bomen.Volg weerberichten en waarschuwingen.

15 daagse weersverwachting Luton (GB)

  • Overzicht
  • Per uur
  • 15 dagen
  • Extra
  • Vergelijk
  • Kaarten
  • Dagkaart
  • Meer »
  • Info
  • Statistieken
  • Directe link
    Temp 6h Neerslag Wind  
 05:18     21:00    Daglengte: 15:42 Vandaag
19:00
23°
 
2
 05:19     20:58    Daglengte: 15:39 Morgen
01:00
17°
 
3
07:00
16°
 
4
13:00
19°
0.9 mm
4
19:00
18°
2.4 mm
4
 05:21     20:57    Daglengte: 15:36 Woensdag 28 Jul
01:00
16°
 
4
07:00
14°
 
5
13:00
18°
1.7 mm
7
19:00
16°
11.4 mm
7
 05:22     20:55    Daglengte: 15:33 Donderdag 29 Jul
01:00
12°
3.1 mm
6
07:00
12°
 
7
13:00
19°
 
7
Locatie info
Region: England
Latitude: 51.8816°N
Longitude: -0.4161°E
117 masl
Postcode: LU1 2
Temp/Neerslag /Baro Onweer/Dauwpunt
    Temp Baro 1h Neerslag Dauwpunt Wind UV Bewolking  
 05:18     21:00    Daglengte: 15:42 Vandaag
16:00
22°
1009.1 hPa
11%
14.0°
2
Windvlaag: 4.7 m/s
24%
17:00
23°
1008.8 hPa
11%
14.4°
2
Windvlaag: 4.3 m/s
13%
18:00
23°
1008.6 hPa
11%
14.7°
2
Windvlaag: 3.3 m/s
10%
19:00
23°
1008.3 hPa
13%
14.8°
2
Windvlaag: 2 m/s
13%
20:00
22°
1008.4 hPa
13%
14.4°
2
Windvlaag: 4 m/s
15%
21:00
20°
1008.6 hPa
14%
15.7°
3
Windvlaag: 5.1 m/s
21%
22:00
19°
1009.0 hPa
14%
15.7°
3
Windvlaag: 6 m/s
35%
23:00
18°
1009.0 hPa
14%
16.0°
3
Windvlaag: 5.2 m/s
52%
 05:19     20:58    Daglengte: 15:39 Morgen
00:00
18°
1008.9 hPa
57%
16.0°
3
Windvlaag: 5.4 m/s
59%
01:00
17°
1008.9 hPa
73%
15.8°
3
Windvlaag: 4.9 m/s
79%
02:00
17°
1008.6 hPa
66%
15.5°
4
Windvlaag: 4.7 m/s
73%
03:00
16°
1008.3 hPa
15%
15.1°
4
Windvlaag: 4.8 m/s
82%
04:00
16°
1008.1 hPa
26%
15.0°
4
Windvlaag: 4.4 m/s
84%
05:00
16°
1008.0 hPa
82%
14.9°
4
Windvlaag: 3.6 m/s
85%
06:00
16°
1008.0 hPa
82%
15.0°
4
Windvlaag: 3.2 m/s
86%
07:00
16°
1008.2 hPa
82%
15.2°
4
Windvlaag: 4.1 m/s
80%
08:00
17°
1008.3 hPa
81%
15.6°
4
Windvlaag: 3.8 m/s
81%
09:00
17°
1008.4 hPa
80%
15.7°
3
Windvlaag: 5 m/s
86%
10:00
18°
1008.3 hPa
82%
15.5°
3
Windvlaag: 4.8 m/s
79%
11:00
18°
1008.3 hPa
82%
15.6°
4
Windvlaag: 6.2 m/s
71%
12:00
19°
1008.1 hPa 0.6 mm
82%
15.6°
4
Windvlaag: 7.1 m/s
67%
13:00
19°
1007.7 hPa 0.4 mm
82%
14.8°
4
Windvlaag: 8.1 m/s
78%
14:00
18°
1007.2 hPa 0.7 mm
82%
12.3°
4
Windvlaag: 7.9 m/s
76%
15:00
18°
1006.8 hPa 0.4 mm
82%
12.6°
4
Windvlaag: 7.9 m/s
84%
16:00
18°
1006.5 hPa 0.3 mm
81%
14.6°
4
Windvlaag: 8.1 m/s
73%
17:00
18°
1006.1 hPa 0.3 mm
81%
14.7°
4
Windvlaag: 7.3 m/s
74%
18:00
18°
1006.0 hPa 0.6 mm
82%
14.3°
4
Windvlaag: 7.2 m/s
75%
19:00
18°
1005.7 hPa
82%
13.3°
4
Windvlaag: 6.9 m/s
62%
20:00
17°
1005.8 hPa
82%
14.1°
3
Windvlaag: 7.2 m/s
67%
21:00
17°
1006.1 hPa
81%
14.8°
3
Windvlaag: 6.9 m/s
70%
22:00
16°
1006.3 hPa
73%
15.2°
3
Windvlaag: 6.3 m/s
73%
23:00
16°
1006.1 hPa
72%
14.9°
3
Windvlaag: 6.1 m/s
67%
 05:21     20:57    Daglengte: 15:36 Woensdag 28 Jul
00:00
16°
1005.9 hPa
73%
14.3°
4
Windvlaag: 6.3 m/s
65%
01:00
16°
1005.5 hPa
82%
14.3°
4
Windvlaag: 6.1 m/s
78%
02:00
15°
1005.3 hPa
82%
14.3°
4
Windvlaag: 5.3 m/s
80%
03:00
15°
1005.2 hPa
82%
14.1°
5
Windvlaag: 5.2 m/s
45% warningclass
04:00
15°
1005.4 hPa
65%
14.0°
5
Windvlaag: 5.3 m/s
56%
05:00
15°
1005.6 hPa
14%
13.5°
5
Windvlaag: 4.6 m/s
22%
06:00
14°
1005.9 hPa
14%
13.4°
5
Windvlaag: 3.7 m/s
59%
07:00
14°
1006.1 hPa
14%
12.9°
5
Windvlaag: 3.9 m/s
57%
08:00
15°
1006.5 hPa
14%
12.9°
5
Windvlaag: 4.3 m/s
16%
09:00
15°
1006.7 hPa
66%
13.2°
6
Windvlaag: 4.5 m/s
31%
10:00
17°
1006.1 hPa 0.4 mm
91%
11.6°
6
Windvlaag: 4.3 m/s
75%
11:00
18°
1006.0 hPa 0.4 mm
98%
11.5°
6
Windvlaag: 4.9 m/s
83%
12:00
19°
1005.8 hPa 0.4 mm
98%
12.0°
6
Windvlaag: 5.1 m/s
76%
13:00
18°
1005.6 hPa 0.4 mm
100%
11.8°
7
Windvlaag: 7.3 m/s
44%
14:00
18°
1005.5 hPa 1.1 mm
100%
14.7°
7
Windvlaag: 9.6 m/s
89%
15:00
17°
1005.4 hPa 1.3 mm
100%
11.3°
7
Windvlaag: 8.8 m/s
53%
16:00
17°
1005.2 hPa 2.1 mm
100%
15.6°
7
Windvlaag: 9.4 m/s
85% warningclass
17:00
17°
1005.0 hPa 2.4 mm
100%
11.8°
6
Windvlaag: 8.6 m/s
36%
18:00
16°
1004.8 hPa 2.4 mm
100%
12.7°
7
Windvlaag: 9.2 m/s
54% warningclass
19:00
16°
1004.7 hPa 2.1 mm
100%
11.7°
7
Windvlaag: 8.4 m/s
17%
20:00
16°
1004.9 hPa 3.1 mm
44%
6.9°
7
Windvlaag: 7.9 m/s
12%
21:00
14°
1005.2 hPa
25%
7.6°
6
Windvlaag: 7.8 m/s
8%
22:00
14°
1005.4 hPa
21%
8.4°
6
Windvlaag: 7.8 m/s
5%
23:00
13°
1005.4 hPa
21%
9.0°
6
Windvlaag: 7.5 m/s
14%
 05:22     20:55    Daglengte: 15:33 Donderdag 29 Jul
00:00
13°
1005.4 hPa
21%
9.5°
7
Windvlaag: 8.3 m/s
18%
01:00
12°
1005.5 hPa
21%
9.9°
6
Windvlaag: 6.5 m/s
14%
02:00
12°
1005.5 hPa
21%
10.5°
6
Windvlaag: 6.5 m/s
19%
03:00
12°
1005.6 hPa
21%
10.3°
7
Windvlaag: 6.3 m/s
10%
04:00
12°
1005.9 hPa
21%
9.9°
7
Windvlaag: 6 m/s
36%
05:00
11°
1006.2 hPa
21%
10.1°
6
Windvlaag: 6.5 m/s
38%
06:00
12°
1006.5 hPa
21%
9.6°
7
Windvlaag: 6.6 m/s
38%
07:00
12°
1006.8 hPa
21%
9.6°
7
Windvlaag: 7.3 m/s
10%
08:00
13°
1008.2 hPa
21%
10.7°
5
Windvlaag: 12.7 m/s
20%
09:00
15°
1008.4 hPa
21%
11.0°
5
Windvlaag: 12.2 m/s
18%
10:00
16°
1008.7 hPa
21%
11.1°
6
Windvlaag: 12.1 m/s
20%
11:00
17°
1008.8 hPa
21%
11.6°
7
Windvlaag: 13 m/s
20%
12:00
18°
1008.9 hPa
21%
11.7°
7
Windvlaag: 13.2 m/s
78%
13:00
19°
1008.7 hPa
21%
10.7°
7
Windvlaag: 13.3 m/s
85%
Temp/Neerslag /Baro Onweer/Dauwpunt
    Temp Baro Neerslag Dauwpunt Wind Bewolking  
 05:18     21:00    Daglengte: 15:42 Vandaag
16:00
22°
1009.1 hPa   14.0°
2
24%
19:00
23°
1008.3 hPa   14.8°
2
13%
22:00
19°
1009.0 hPa   15.7°
3
35%
 05:19     20:58    Daglengte: 15:39 Morgen
01:00
17°
1008.9 hPa   15.8°
3
79%
04:00
16°
1008.1 hPa   15.0°
4
84%
07:00
16°
1008.2 hPa   15.2°
4
80%
10:00
18°
1008.3 hPa   15.5°
3
79%
13:00
19°
1007.7 hPa 0.9 mm 14.8°
4
78%
16:00
18°
1006.5 hPa 1.4 mm 14.6°
4
73%
19:00
18°
1005.7 hPa 1.0 mm 13.3°
4
62%
22:00
16°
1006.3 hPa   15.2°
3
73%
 05:21     20:57    Daglengte: 15:36 Woensdag 28 Jul
01:00
16°
1005.5 hPa   14.3°
4
78%
04:00
15°
1005.4 hPa   14.0°
5
56%
07:00
14°
1006.1 hPa   12.9°
5
57%
10:00
17°
1006.1 hPa 0.4 mm 11.6°
6
75%
13:00
18°
1005.6 hPa 1.2 mm 11.8°
7
44%
16:00
17°
1005.2 hPa 4.5 mm 15.6°
7
85% warningclass
19:00
16°
1004.7 hPa 6.9 mm 11.7°
7
17%
22:00
14°
1005.4 hPa 3.1 mm 8.4°
6
5%
 05:22     20:55    Daglengte: 15:33 Donderdag 29 Jul
01:00
12°
1005.5 hPa   9.9°
6
14%
04:00
12°
1005.9 hPa   9.9°
7
36%
07:00
12°
1006.8 hPa   9.6°
7
10%
10:00
16°
1008.7 hPa   11.1°
6
20%
13:00
19°
1008.7 hPa   10.7°
7
85%
16:00
20°
1008.9 hPa 9.7 mm 9.7°
8
0%
19:00
18°
1009.7 hPa 9.7 mm 10.0°
7
0%
22:00
14°
1010.4 hPa 9.7 mm 9.1°
5
1%
 05:24     20:54    Daglengte: 15:30 Vrijdag 30 Jul
01:00
11°
1010.7 hPa 9.7 mm 9.5°
3
1%
04:00
11°
1010.1 hPa 9.7 mm 9.5°
3
1%
07:00
12°
1009.6 hPa 9.7 mm 9.8°
2
1%
10:00
16°
1008.8 hPa 9.7 mm 12.2°
4
1%
13:00
15°
1007.5 hPa 10.0 mm 11.9°
5
1%
16:00
15°
1005.9 hPa 12.2 mm 13.2°
6
1%
19:00
16°
1004.2 hPa 12.5 mm 12.0°
6
1%
22:00
13°
1003.7 hPa 12.6 mm 10.5°
5
1%
 05:25     20:52    Daglengte: 15:27 Zaterdag 31 Jul
01:00
13°
1001.5 hPa 13.0 mm 11.6°
5
1%
04:00
13°
1000.6 hPa 15.2 mm 11.8°
3
1%
07:00
12°
1003.2 hPa 15.5 mm 11.1°
6
1%
10:00
16°
1004.6 hPa 15.7 mm 13.0°
6
0%
13:00
18°
1006.1 hPa 16.2 mm 12.7°
6
1%
16:00
19°
1006.8 hPa 18.4 mm 13.5°
6
1%
19:00
17°
1007.4 hPa 20.5 mm 13.6°
4
1%
22:00
13°
1008.9 hPa 20.9 mm 11.0°
3
1%
 05:27     20:50    Daglengte: 15:23 Zondag 01 Aug
01:00
12°
1009.0 hPa 20.9 mm 9.9°
3
1%
04:00
10°
1008.9 hPa 20.9 mm 8.6°
4
1%
07:00
10°
1009.2 hPa 20.9 mm 8.9°
4
1%
10:00
12°
1010.1 hPa 21.1 mm 9.9°
4
1%
13:00
14°
1011.0 hPa 21.1 mm 10.8°
4
1%
16:00
17°
1011.7 hPa 22.2 mm 11.3°
3
1%
19:00
15°
1012.7 hPa 23.1 mm 11.7°
3
1%
22:00
13°
1014.0 hPa 23.4 mm 10.7°
1
1%
 05:28     20:49    Daglengte: 15:21 Maandag 02 Aug
01:00
12°
1014.7 hPa 23.4 mm 10.3°
2
1%
04:00
11°
1014.7 hPa 23.4 mm 9.9°
2
0%
07:00
12°
1015.7 hPa 23.4 mm 9.9°
3
1%
10:00
15°
1016.5 hPa 23.4 mm 9.7°
3
1%
13:00
18°
1015.9 hPa 46.9 mm 8.5°
3
1%
19:00
17°
1014.8 hPa 47.0 mm 10.9°
2
1%
 05:30     20:47    Daglengte: 15:17 Dinsdag 03 Aug
01:00
12°
1015.3 hPa 47.0 mm 8.1°
2
1%
07:00
12°
1014.6 hPa 47.0 mm 10.2°
3
0%
13:00
17°
1012.7 hPa 47.1 mm 13.6°
7
1%
19:00
18°
1010.0 hPa 49.4 mm 14.3°
6
1%
 05:31     20:45    Daglengte: 15:14 Woensdag 04 Aug
01:00
14°
1009.4 hPa 50.6 mm 12.9°
6
1%
07:00
14°
1008.0 hPa 51.5 mm 12.8°
6
1%
13:00
18°
1007.5 hPa 52.4 mm 12.5°
8
1%
19:00
18°
1007.8 hPa 54.4 mm 11.3°
6
1%
 05:33     20:43    Daglengte: 15:10 Donderdag 05 Aug
01:00
13°
1008.2 hPa 54.5 mm 11.9°
5
1%
07:00
14°
1006.4 hPa 54.6 mm 12.3°
5
1%
13:00
19°
1008.7 hPa 1.4 mm 11.7°
4
72%
19:00
18°
1007.3 hPa 2.1 mm 12.3°
3
72%
 05:34     20:41    Daglengte: 15:07 Vrijdag 06 Aug
01:00
14°
1008.0 hPa 0.6 mm 10.9°
2
55%
07:00
13°
1007.8 hPa 0.1 mm 10.7°
2
51%
13:00
19°
1007.8 hPa 0.8 mm 11.5°
3
68%
19:00
18°
1007.2 hPa 2.2 mm 12.0°
3
68%
 05:36     20:40    Daglengte: 15:04 Zaterdag 07 Aug
01:00
14°
1008.6 hPa 0.7 mm 10.8°
3
56%
07:00
13°
1008.9 hPa 0.6 mm 10.8°
3
57%
13:00
19°
1009.8 hPa 0.5 mm 11.3°
4
60%
19:00
18°
1009.6 hPa 1.8 mm 11.6°
4
69%
 05:38     20:38    Daglengte: 15:00 Zondag 08 Aug
01:00
14°
1010.6 hPa 0.6 mm 10.3°
3
70%
07:00
13°
1010.3 hPa 0.5 mm 10.7°
3
59%
13:00
18°
1011.1 hPa 0.7 mm 11.3°
4
70%
19:00
17°
1011.2 hPa 0.6 mm 11.1°
4
79%
 05:39     20:36    Daglengte: 14:57 Maandag 09 Aug
01:00
13°
1012.4 hPa 0.3 mm 10.1°
3
61%
07:00
13°
1012.7 hPa 0.5 mm 10.2°
3
55%
13:00
19°
1013.9 hPa 0.5 mm 10.7°
4
66%
19:00
19°
1013.9 hPa 0.8 mm 11.2°
3
67%
 05:41     20:34    Daglengte: 14:53 Dinsdag 10 Aug
01:00
14°
1015.4 hPa 0.5 mm 10.5°
2
57%
07:00
13°
1015.4 hPa 0.4 mm 10.7°
3
56%
13:00
19°
1015.8 hPa 0.4 mm 11.3°
3
61%
  CAPE Lifted Index Hail Supercell Tornado SRH 3km CL BTM PRES CL TOP PRES Swiss DWD icon SMHI TS
 05:18     21:00    Daglengte: 15:42 Vandaag
16:00 175 J/kg -1.1 K 0 % 0 % 0 % 0 m²/s² 0 0 2.47 3
17:00 211 J/kg -1.4 K 0 % 0 % 0 % 0 m²/s² 0 0 2.17 2
18:00 225 J/kg -1.5 K 0 % 0 % 0 % 0 m²/s² 0 0 1.98 2
19:00 280 J/kg -1.9 K 0 % 0 % 0 % 0 m²/s² 0 0 1.67 1
20:00 299 J/kg -1.9 K 0 % 0 % 0 % 0 m²/s² 0 0 1.58 0
21:00 484 J/kg -3.3 K 0 % 0 % 0 % 0 m²/s² 0 0 -0.81 2
22:00 373 J/kg -2.2 K 0 % 0 % 0 % 0 m²/s² 0 0 -0.34 3
23:00 328 J/kg -2.4 K 0 % 0 % 0 % 0 m²/s² 0 0 0.06 3
 05:19     20:58    Daglengte: 15:39 Morgen
00:00 54 J/kg -2.1 K 0 % 0 % 0 % 0 m²/s² 0 0 0.3 3
01:00 111 J/kg -2.7 K 0 % 0 % 0 % 0 m²/s² 0 0 -0.66 80
02:00 185 J/kg -3.1 K 0 % 0 % 0 % 0 m²/s² 0 0 -2.41 3
03:00 179 J/kg -3.1 K 0 % 0 % 0 % 0 m²/s² 0 0 -2.62 3
04:00 129 J/kg -2.8 K 0 % 0 % 0 % 0 m²/s² 0 0 -1.72 3
05:00 106 J/kg -2.0 K 0 % 0 % 0 % 0 m²/s² 0 0 -1.19 3
06:00 62 J/kg -1.0 K 0 % 0 % 0 % 0 m²/s² 0 0 -0.58 3
07:00 175 J/kg -0.1 K 0 % 0 % 0 % 0 m²/s² 0 0 0.02 61
08:00 395 J/kg -1.3 K 0 % 0 % 0 % 0 m²/s² 0 0 -1.12 3
09:00 553 J/kg -1.9 K 0 % 0 % 0 % 0 m²/s² 0 0 -1.78 61
10:00 345 J/kg -1.0 K 0 % 0 % 0 % 0 m²/s² 0 0 -0.88 61
11:00 289 J/kg -0.7 K 0 % 0 % 0 % 0 m²/s² 0 0 -0.49 61
12:00 228 J/kg -0.3 K 0 % 0 % 0 % 0 m²/s² 0 0 -0.06 80
13:00 460 J/kg -1.7 K 0 % 0 % 0 % 0 m²/s² 0 0 -1.19 61
14:00 489 J/kg -1.9 K 0 % 0 % 0 % 0 m²/s² 0 0 -1.24 61
15:00 575 J/kg -2.4 K 0 % 0 % 0 % 0 m²/s² 0 0 -1.62 80
16:00 558 J/kg -2.2 K 0 % 0 % 0 % 0 m²/s² 0 0 -1.6 80
17:00 295 J/kg -1.2 K 0 % 0 % 0 % 0 m²/s² 0 0 -0.54 80
18:00 529 J/kg -2.1 K 0 % 0 % 0 % 0 m²/s² 0 0 -1.59 80
19:00 446 J/kg -1.9 K 0 % 0 % 0 % 0 m²/s² 0 0 -1.42 80
20:00 571 J/kg -2.0 K 0 % 0 % 0 % 0 m²/s² 0 0 -1.61 80
21:00 510 J/kg -1.7 K 0 % 0 % 0 % 0 m²/s² 0 0 -1.28 80
22:00 211 J/kg -0.3 K 0 % 0 % 0 % 0 m²/s² 0 0 0.63 3
23:00 58 J/kg 0.8 K 0 % 0 % 0 % 0 m²/s² 0 0 2.09 3
 05:21     20:57    Daglengte: 15:36 Woensdag 28 Jul
00:00 0 J/kg 1.8 K 0 % 0 % 0 % 0 m²/s² 0 0 3.36 3
01:00 0 J/kg 1.1 K 0 % 0 % 0 % 0 m²/s² 0 0 2.78 61
02:00 0 J/kg 0.2 K 0 % 0 % 0 % 0 m²/s² 0 0 2.06 80
03:00 0 J/kg -0.1 K 0 % 0 % 0 % 0 m²/s² 0 0 1.34 95
04:00 19 J/kg 0.8 K 0 % 0 % 0 % 0 m²/s² 0 0 2.18 3
05:00 37 J/kg 1.7 K 0 % 0 % 0 % 0 m²/s² 0 0 2.66 2
06:00 0 J/kg 1.6 K 0 % 0 % 0 % 0 m²/s² 0 0 2.08 3
07:00 9 J/kg 1.8 K 0 % 0 % 0 % 0 m²/s² 0 0 2.25 2
08:00 125 J/kg 1.4 K 0 % 0 % 0 % 0 m²/s² 0 0 2.3 2
09:00 95 J/kg 1.4 K 0 % 0 % 0 % 0 m²/s² 0 0 2.87 3
10:00 190 J/kg 0.1 K 0 % 0 % 0 % 0 m²/s² 0 0 1.75 3
11:00 507 J/kg -1.9 K 0 % 0 % 0 % 0 m²/s² 0 0 0.29 3
12:00 640 J/kg -2.8 K 0 % 0 % 0 % 0 m²/s² 0 0 -0.61 3
13:00 719 J/kg -3.1 K 0 % 0 % 0 % 0 m²/s² 0 0 -0.82 2
14:00 326 J/kg -1.0 K 0 % 0 % 0 % 0 m²/s² 0 0 -0.13 80
15:00 34 J/kg 0.0 K 0 % 0 % 0 % 0 m²/s² 0 0 0.69 80
16:00 281 J/kg -1.4 K 0 % 0 % 0 % 0 m²/s² 0 0 -1.4 95
17:00 398 J/kg -1.9 K 0 % 0 % 0 % 0 m²/s² 0 0 -0.94 80
18:00 534 J/kg -2.6 K 0 % 0 % 0 % 0 m²/s² 0 0 -2.3 80
19:00 485 J/kg -2.2 K 0 % 0 % 0 % 0 m²/s² 0 0 -0.28 80
20:00 1 J/kg 1.9 K 0 % 0 % 0 % 0 m²/s² 0 0 3.82 2
21:00 13 J/kg 2.0 K 0 % 0 % 0 % 0 m²/s² 0 0 3.38 2
22:00 112 J/kg 1.3 K 0 % 0 % 0 % 0 m²/s² 0 0 2.77 2
23:00 209 J/kg 0.9 K 0 % 0 % 0 % 0 m²/s² 0 0 3.15 2
 05:22     20:55    Daglengte: 15:33 Donderdag 29 Jul
00:00 157 J/kg 1.0 K 0 % 0 % 0 % 0 m²/s² 0 0 1.33 1
01:00 146 J/kg 0.4 K 0 % 0 % 0 % 0 m²/s² 0 0 3.49 1
02:00 159 J/kg -0.1 K 0 % 0 % 0 % 0 m²/s² 0 0 2.03 2
03:00 219 J/kg -0.5 K 0 % 0 % 0 % 0 m²/s² 0 0 1.27 2
04:00 62 J/kg -0.2 K 0 % 0 % 0 % 0 m²/s² 0 0 0.22 2
05:00 74 J/kg -0.1 K 0 % 0 % 0 % 0 m²/s² 0 0 1.22 2
06:00 10 J/kg 0.9 K 0 % 0 % 0 % 0 m²/s² 0 0 2.28 2
07:00 0 J/kg 1.2 K 0 % 0 % 0 % 0 m²/s² 0 0 4.68 2
08:00 0 J/kg 1.2 K 0 % 0 % 0 % 0 m²/s² 0 0 5.61 1
09:00 66 J/kg 0.4 K 0 % 0 % 0 % 0 m²/s² 0 0 3.34 1
10:00 46 J/kg 0.6 K 0 % 0 % 0 % 0 m²/s² 0 0 3.54 2
11:00 42 J/kg 0.3 K 0 % 0 % 0 % 0 m²/s² 0 0 3.42 2
12:00 93 J/kg 0.0 K 0 % 0 % 0 % 0 m²/s² 0 0 2.79 3
13:00 145 J/kg 0.0 K 0 % 0 % 0 % 0 m²/s² 0 0 3.12 3
Temp Baro Wind Neerslag
  EWN Forecast EWN WRFDA DWD ICON FMI HIRLAM MET Norway GFS
 05:18     21:00    Daglengte: 15:42 Vandaag
16:00 21.8° 1009.1 hPa 2.2 m/s 0.0 mm 24.1° 1008.0 hPa 3.9 m/s 0.0 mm 23.1° 1009.5 hPa 3.5 m/s -2.0 mm 21.3° 1009.0 hPa 0.8 m/s 0.0 mm 22.9° 1008.8 hPa 2.6 m/s
19:00 22.6° 1008.3 hPa 2.0 m/s 0.0 mm 23.9° 1006.9 hPa 3.6 m/s 0.1 mm 22.6° 1008.3 hPa 2.6 m/s 0.0 mm 22.1° 1008.4 hPa 1.1 m/s 0.0 mm 20.1° 1008.3 hPa 1.5 m/s
22:00 18.9° 1009.0 hPa 2.6 m/s 0.0 mm 18.9° 1008.2 hPa 1.4 m/s 0.6 mm 18.8° 1009.3 hPa 2.4 m/s 0.0 mm 19.2° 1009.0 hPa 2.7 m/s 0.0 mm 17.1° 1008.8 hPa 2.9 m/s
 05:19     20:58    Daglengte: 15:39 Morgen
01:00 17.3° 1008.9 hPa 3.3 m/s 0.0 mm 17.1° 1008.0 hPa 5.0 m/s 1.4 mm 17.2° 1009.2 hPa 2.3 m/s 0.3 mm 17.9° 1008.3 hPa 3.1 m/s 0.0 mm 16.0° 1008.7 hPa 2.8 m/s
04:00 16.4° 1008.1 hPa 4.3 m/s 0.0 mm 15.9° 1007.2 hPa 4.7 m/s 1.4 mm 16.4° 1008.7 hPa 4.1 m/s 0.0 mm 17.0° 1007.6 hPa 3.8 m/s 0.0 mm 15.1° 1008.1 hPa 3.9 m/s
07:00 16.3° 1008.2 hPa 3.8 m/s 0.0 mm 16.5° 1007.5 hPa 4.5 m/s 1.4 mm 16.3° 1008.8 hPa 3.0 m/s 0.4 mm 16.7° 1007.5 hPa 3.8 m/s 0.0 mm 15.8° 1008.3 hPa 3.6 m/s
10:00 17.6° 1008.3 hPa 3.5 m/s 0.0 mm 18.1° 1007.6 hPa 6.0 m/s 1.6 mm 17.2° 1008.7 hPa 3.3 m/s 0.5 mm 18.7° 1007.6 hPa 3.3 m/s 0.0 mm 15.6° 1008.2 hPa 3.8 m/s
13:00 18.8° 1007.7 hPa 4.3 m/s 0.9 mm 20.6° 1007.3 hPa 6.7 m/s 1.8 mm 16.9° 1008.4 hPa 3.8 m/s 1.8 mm 20.6° 1006.9 hPa 4.0 m/s 0.0 mm 18.8° 1007.6 hPa 5.8 m/s
16:00 18.1° 1006.5 hPa 3.8 m/s 1.4 mm 20.4° 1006.0 hPa 5.9 m/s 2.0 mm 17.3° 1007.1 hPa 3.2 m/s 1.1 mm 20.5° 1006.1 hPa 3.5 m/s 0.0 mm 18.3° 1006.9 hPa 6.3 m/s
19:00 17.8° 1005.7 hPa 3.6 m/s 1.0 mm 20.1° 1005.4 hPa 6.0 m/s 2.1 mm 16.6° 1006.2 hPa 2.7 m/s 1.2 mm 20.1° 1005.6 hPa 3.4 m/s 0.0 mm 17.3° 1005.9 hPa 5.3 m/s
22:00 16.3° 1006.3 hPa 3.1 m/s 0.0 mm 16.8° 1005.9 hPa 4.9 m/s 2.6 mm 16.2° 1006.2 hPa 2.7 m/s 2.0 mm 17.3° 1006.8 hPa 2.8 m/s 0.0 mm 15.0° 1006.4 hPa 4.4 m/s
 05:21     20:57    Daglengte: 15:36 Woensdag 28 Jul
01:00 15.5° 1005.5 hPa 4.1 m/s 0.0 mm 14.8° 1005.2 hPa 4.2 m/s 2.6 mm 15.4° 1005.2 hPa 2.5 m/s 0.2 mm 16.8° 1007.0 hPa 4.3 m/s 0.0 mm 13.4° 1005.9 hPa 4.2 m/s
04:00 15.0° 1005.4 hPa 4.9 m/s 0.0 mm 14.0° 1004.3 hPa 3.1 m/s 2.7 mm 15.0° 1005.3 hPa 4.9 m/s 1.1 mm 15.9° 1007.4 hPa 4.7 m/s 0.0 mm 12.9° 1005.5 hPa 5.1 m/s
07:00 14.4° 1006.1 hPa 5.2 m/s 0.0 mm 14.1° 1005.6 hPa 4.3 m/s 2.7 mm 14.3° 1005.7 hPa 5.1 m/s 0.0 mm 14.7° 1009.1 hPa 5.2 m/s 0.0 mm 14.2° 1006.0 hPa 6.1 m/s
10:00 16.6° 1006.1 hPa 5.9 m/s 0.4 mm 17.3° 1005.6 hPa 4.8 m/s 2.9 mm 16.0° 1006.6 hPa 5.7 m/s 0.2 mm 17.0° 1006.2 hPa 6.8 m/s
13:00 18.4° 1005.6 hPa 6.7 m/s 1.2 mm 19.4° 1004.4 hPa 6.7 m/s 3.1 mm 18.0° 1005.9 hPa 6.1 m/s 0.3 mm 18.7° 1005.6 hPa 7.6 m/s
16:00 17.3° 1005.2 hPa 7.3 m/s 4.5 mm 14.8° 1004.6 hPa 9.2 m/s 16.0 mm 17.6° 1006.1 hPa 6.0 m/s 1.5 mm 17.8° 1004.6 hPa 8.9 m/s
19:00 16.3° 1004.7 hPa 6.6 m/s 6.9 mm 16.8° 1003.5 hPa 7.3 m/s 26.4 mm 16.4° 1005.9 hPa 6.0 m/s 2.6 mm 15.4° 1004.7 hPa 8.1 m/s
22:00 13.8° 1005.4 hPa 6.4 m/s 3.1 mm 13.7° 1004.5 hPa 6.7 m/s 27.3 mm 14.1° 1007.3 hPa 4.9 m/s 0.0 mm 12.1° 1005.6 hPa 7.6 m/s
 05:22     20:55    Daglengte: 15:33 Donderdag 29 Jul
01:00 12.4° 1005.5 hPa 6.3 m/s 0.0 mm 11.9° 1004.0 hPa 6.5 m/s 27.5 mm 12.7° 1007.8 hPa 5.0 m/s 0.0 mm 11.4° 1005.5 hPa 7.9 m/s
04:00 11.8° 1005.9 hPa 6.6 m/s 0.0 mm 11.9° 1003.4 hPa 7.1 m/s 27.9 mm 12.0° 1008.0 hPa 5.0 m/s 0.0 mm 12.0° 1006.5 hPa 6.9 m/s
07:00 12.2° 1006.8 hPa 6.7 m/s 0.0 mm 12.3° 1003.9 hPa 7.5 m/s 28.1 mm 12.5° 1008.9 hPa 5.3 m/s 0.0 mm 12.3° 1007.8 hPa 7.0 m/s
10:00 15.9° 1008.7 hPa 6.2 m/s 0.0 mm 15.9° 1005.4 hPa 8.6 m/s 28.1 mm 15.9° 1009.6 hPa 5.5 m/s 0.0 mm 16.4° 1008.8 hPa 8.8 m/s
13:00 19.1° 1008.7 hPa 7.0 m/s 0.0 mm 19.4° 1006.7 hPa 9.3 m/s 28.1 mm 19.0° 1009.1 hPa 6.5 m/s 0.0 mm 18.9° 1009.1 hPa 8.7 m/s
16:00 20.4° 1008.9 hPa 8.5 m/s 9.7 mm 20.4° 1008.9 hPa 8.5 m/s 9.7 mm
19:00 17.5° 1009.7 hPa 7.2 m/s 9.7 mm 17.5° 1009.7 hPa 7.2 m/s 9.7 mm
22:00 13.6° 1010.4 hPa 4.8 m/s 9.7 mm 13.6° 1010.4 hPa 4.8 m/s 9.7 mm
 05:24     20:54    Daglengte: 15:30 Vrijdag 30 Jul
01:00 11.3° 1010.7 hPa 3.4 m/s 9.7 mm 11.3° 1010.7 hPa 3.4 m/s 9.7 mm
04:00 10.7° 1010.1 hPa 2.7 m/s 9.7 mm 10.7° 1010.1 hPa 2.7 m/s 9.7 mm
07:00 12.4° 1009.6 hPa 2.3 m/s 9.7 mm 12.4° 1009.6 hPa 2.3 m/s 9.7 mm
10:00 16.0° 1008.8 hPa 4.4 m/s 9.7 mm 16.0° 1008.8 hPa 4.4 m/s 9.7 mm
13:00 15.1° 1007.5 hPa 5.3 m/s 10.0 mm 15.1° 1007.5 hPa 5.3 m/s 10.0 mm
16:00 14.8° 1005.9 hPa 5.9 m/s 12.2 mm 14.8° 1005.9 hPa 5.9 m/s 12.2 mm
19:00 16.1° 1004.2 hPa 6.0 m/s 12.5 mm 16.1° 1004.2 hPa 6.0 m/s 12.5 mm
22:00 12.8° 1003.7 hPa 5.1 m/s 12.6 mm 12.8° 1003.7 hPa 5.1 m/s 12.6 mm
 05:25     20:52    Daglengte: 15:27 Zaterdag 31 Jul
01:00 13.1° 1001.5 hPa 5.4 m/s 13.0 mm 13.1° 1001.5 hPa 5.4 m/s 13.0 mm
04:00 12.6° 1000.6 hPa 3.2 m/s 15.2 mm 12.6° 1000.6 hPa 3.2 m/s 15.2 mm
07:00 12.2° 1003.2 hPa 5.7 m/s 15.5 mm 12.2° 1003.2 hPa 5.7 m/s 15.5 mm
10:00 15.9° 1004.6 hPa 6.2 m/s 15.7 mm 15.9° 1004.6 hPa 6.2 m/s 15.7 mm
13:00 18.2° 1006.1 hPa 6.1 m/s 16.2 mm 18.2° 1006.1 hPa 6.1 m/s 16.2 mm
16:00 18.8° 1006.8 hPa 5.6 m/s 18.4 mm 18.8° 1006.8 hPa 5.6 m/s 18.4 mm
19:00 16.7° 1007.4 hPa 4.2 m/s 20.5 mm 16.7° 1007.4 hPa 4.2 m/s 20.5 mm
22:00 13.4° 1008.9 hPa 3.3 m/s 20.9 mm 13.4° 1008.9 hPa 3.3 m/s 20.9 mm
 05:27     20:50    Daglengte: 15:23 Zondag 01 Aug
01:00 12.0° 1009.0 hPa 3.4 m/s 20.9 mm 12.0° 1009.0 hPa 3.4 m/s 20.9 mm
04:00 10.1° 1008.9 hPa 4.1 m/s 20.9 mm 10.1° 1008.9 hPa 4.1 m/s 20.9 mm
07:00 10.5° 1009.2 hPa 4.3 m/s 20.9 mm 10.5° 1009.2 hPa 4.3 m/s 20.9 mm
10:00 12.4° 1010.1 hPa 4.2 m/s 21.1 mm 12.4° 1010.1 hPa 4.2 m/s 21.1 mm
13:00 14.2° 1011.0 hPa 3.6 m/s 21.1 mm 14.1° 1011.0 hPa 3.6 m/s 21.1 mm
16:00 16.5° 1011.7 hPa 3.4 m/s 22.2 mm 16.5° 1011.7 hPa 3.4 m/s 22.2 mm
19:00 15.0° 1012.7 hPa 2.7 m/s 23.1 mm 15.0° 1012.7 hPa 2.7 m/s 23.1 mm
22:00 12.8° 1014.0 hPa 1.3 m/s 23.4 mm 12.8° 1014.0 hPa 1.3 m/s 23.4 mm
 05:28     20:49    Daglengte: 15:21 Maandag 02 Aug
01:00 11.8° 1014.7 hPa 1.6 m/s 23.4 mm 11.8° 1014.7 hPa 1.6 m/s 23.4 mm
04:00 10.8° 1014.7 hPa 2.4 m/s 23.4 mm 10.8° 1014.7 hPa 2.4 m/s 23.4 mm
07:00 11.6° 1015.7 hPa 2.9 m/s 23.4 mm 11.6° 1015.7 hPa 2.9 m/s 23.4 mm
10:00 15.0° 1016.5 hPa 3.3 m/s 23.4 mm 15.0° 1016.5 hPa 3.3 m/s 23.4 mm
13:00 18.2° 1015.9 hPa 3.4 m/s 23.5 mm 18.2° 1015.9 hPa 3.4 m/s 23.5 mm
19:00 17.0° 1014.8 hPa 2.3 m/s 23.5 mm 17.0° 1014.8 hPa 2.3 m/s 23.5 mm
 05:30     20:47    Daglengte: 15:17 Dinsdag 03 Aug
01:00 12.4° 1015.3 hPa 2.4 m/s 23.5 mm 12.4° 1015.3 hPa 2.4 m/s 23.5 mm
07:00 12.4° 1014.6 hPa 3.4 m/s 23.5 mm 12.4° 1014.6 hPa 3.4 m/s 23.5 mm
13:00 16.5° 1012.7 hPa 7.2 m/s 23.6 mm 16.5° 1012.7 hPa 7.2 m/s 23.6 mm
19:00 18.1° 1010.0 hPa 6.4 m/s 25.2 mm 18.1° 1010.0 hPa 6.4 m/s 25.2 mm
 05:31     20:45    Daglengte: 15:14 Woensdag 04 Aug
01:00 14.1° 1009.4 hPa 6.2 m/s 25.3 mm 14.1° 1009.4 hPa 6.2 m/s 25.3 mm
07:00 14.3° 1008.0 hPa 6.2 m/s 25.8 mm 14.3° 1008.0 hPa 6.2 m/s 25.8 mm
13:00 18.4° 1007.5 hPa 7.9 m/s 26.6 mm 18.4° 1007.5 hPa 7.9 m/s 26.6 mm
19:00 17.9° 1007.8 hPa 6.0 m/s 27.2 mm 17.9° 1007.8 hPa 6.0 m/s 27.2 mm
 05:33     20:43    Daglengte: 15:10 Donderdag 05 Aug
01:00 12.8° 1008.2 hPa 5.0 m/s 27.2 mm 12.8° 1008.2 hPa 5.0 m/s 27.2 mm
07:00 13.6° 1006.4 hPa 4.8 m/s 27.3 mm 13.6° 1006.4 hPa 4.8 m/s 27.3 mm
13:00 18.5° 1008.7 hPa 3.7 m/s 1.4 mm
19:00 17.9° 1007.3 hPa 3.0 m/s 2.1 mm
 05:34     20:41    Daglengte: 15:07 Vrijdag 06 Aug
01:00 13.5° 1008.0 hPa 2.2 m/s 0.6 mm
07:00 13.0° 1007.8 hPa 2.2 m/s 0.1 mm
13:00 18.8° 1007.8 hPa 3.0 m/s 0.8 mm
19:00 18.2° 1007.2 hPa 2.6 m/s 2.2 mm
 05:36     20:40    Daglengte: 15:04 Zaterdag 07 Aug
01:00 13.6° 1008.6 hPa 2.6 m/s 0.7 mm
07:00 13.1° 1008.9 hPa 3.1 m/s 0.6 mm
13:00 18.9° 1009.8 hPa 3.8 m/s 0.5 mm
19:00 18.0° 1009.6 hPa 3.6 m/s 1.8 mm
 05:38     20:38    Daglengte: 15:00 Zondag 08 Aug
01:00 13.7° 1010.6 hPa 3.0 m/s 0.6 mm
07:00 13.0° 1010.3 hPa 3.2 m/s 0.5 mm
13:00 18.4° 1011.1 hPa 4.1 m/s 0.7 mm
19:00 17.4° 1011.2 hPa 3.7 m/s 0.6 mm
 05:39     20:36    Daglengte: 14:57 Maandag 09 Aug
01:00 13.4° 1012.4 hPa 3.2 m/s 0.3 mm
07:00 12.8° 1012.7 hPa 3.1 m/s 0.5 mm
13:00 18.8° 1013.9 hPa 3.6 m/s 0.5 mm
19:00 18.6° 1013.9 hPa 2.9 m/s 0.8 mm
 05:41     20:34    Daglengte: 14:53 Dinsdag 10 Aug
01:00 13.6° 1015.4 hPa 2.3 m/s 0.5 mm
07:00 13.1° 1015.4 hPa 2.6 m/s 0.4 mm
13:00 19.4° 1015.8 hPa 3.2 m/s 0.4 mm
FMI Hirlam - 7.5 km EWN WRFDA - 12 km DWD ICON - 7 km GFS - 25 km Basiskaart






























































Updatetijd (Europe/Amsterdam) Resolutie Lengte Stap
FMI Hirlam 14:00, 20:00, 02:00, 08:00 7.5 km 49h 1h
EWN WRFDA 10:30, 16:30, 22:30, 04:30 12 km 73h 1h
DWD ICON 11:45, 17:45, 23:45, 05:45 7 km 75h 1h
GFS 14:15, 20:15, 02:15, 08:15 25 km 237h 3h
30+ mm
25-30 mm
20-25 mm
15-20 mm
10-15 mm
6-10 mm
4-6 mm
2-4 mm
1-2 mm
0.5-1 mm
0.2-0.5 mm
0.1-0.2 mm
30+ mm
25-30 mm
20-25 mm
15-20 mm
10-15 mm
6-10 mm
4-6 mm
2-4 mm
1-2 mm
0.5-1 mm
0.2-0.5 mm
0.1-0.2 mm
Sneeuwval
Natte sneeuw
Hagel
Vorst
30+ mm
25-30 mm
20-25 mm
15-20 mm
10-15 mm
6-10 mm
4-6 mm
2-4 mm
1-2 mm
0.5-1 mm
0.2-0.5 mm
0.1-0.2 mm
Sneeuwval
Natte sneeuw
Hagel
Vorst
Onweer
50 mm
40 mm
30 mm
26 mm
22 mm
18 mm
14 mm
10 mm
9 mm
8 mm
7 mm
6 mm
5 mm
4.5 mm
4 mm
3.5 mm
3 mm
2.5 mm
2 mm
1.5 mm
1 mm
0.8 mm
0.6 mm
0.4 mm
0.2 mm
0.05 mm
35°
30°
25°
20°
15°
10°
-5°
-10°
-15°
-20°
-25°
-30°
-35°
33> m/s
29 m/s
25 m/s
21 m/s
17 m/s
14 m/s
11 m/s
8 m/s
5 m/s
3 m/s
0 m/s
2600 J/kg
2400 J/kg
2200 J/kg
2000 J/kg
1800 J/kg
1600 J/kg
1400 J/kg
1200 J/kg
1000 J/kg
800 J/kg
600 J/kg
400 J/kg
200 J/kg
70 dBZ
65 dBZ
60 dBZ
55 dBZ
50 dBZ
45 dBZ
40 dBZ
35 dBZ
30 dBZ
25 dBZ
20 dBZ
15 dBZ
10 dBZ
5 dBZ
-1 K
-2 K
-3 K
-4 K
-5 K
-6 K
-7 K
-8 K
-9 K
950 m²/s²
900 m²/s²
850 m²/s²
800 m²/s²
750 m²/s²
700 m²/s²
650 m²/s²
600 m²/s²
550 m²/s²
500 m²/s²
450 m²/s²
400 m²/s²
350 m²/s²
300 m²/s²
250 m²/s²
200 m²/s²
150 m²/s²
100 m²/s²
46 m/s
44 m/s
42 m/s
40 m/s
38 m/s
36 m/s
34 m/s
32 m/s
30 m/s
28 m/s
26 m/s
24 m/s
22 m/s
20 m/s
16 m/s
12 m/s
8 m/s
4 m/s
30 m/s
28 m/s
26 m/s
24 m/s
22 m/s
20 m/s
18 m/s
16 m/s
14 m/s
12 m/s
10 m/s
8 m/s
6 m/s
4 m/s
2 m/s
3.0
2.8
2.6
2.4
2.2
2.0
1.8
1.6
1.4
1.2
1.0
0.8
0.6
0.4
0.2
15
14
13
12
11
10
9
8
7
6
5
4
3<